Peotone Weather
Station Historical Data
 
Daily Summary for June 24, 2018 Units:  English    Metric   Both
« Previous Day
Next Day »
Daily Weekly Monthly Yearly Custom
  Current: High: Low: Average:
Temperature: 63.8 °F 67.6 °F 63.8 °F 66.6 °F
Dew Point: 61.4 °F 64.9 °F 61.4 °F 63.8 °F
Humidity: 92% 92% 90% 91%
Wind Speed: 0.0mph 9.2mph 0.0mph 2.8mph
Wind Gust: 4.6mph 9.2mph - -
WindCalm - - WSW
Pressure: 29.86 in 29.86 in 29.82 in -
Precipitation: 0.00 in      
Historical Graphs
 
 
Tabular Data for June 24, 2018
Time Temperature Dew Point Pressure Wind Wind Speed Wind Gust Humidity Rainfall Rate (Hourly) solar Conditions
00:00 67.6 °F 64.9 °F 29.82 in SSW 5.8 mph 5.8 mph 91% 0.00 in 0.00 W/m2
00:04 67.6 °F 64.9 °F 29.82 in SSW 5.8 mph 5.8 mph 91% 0.00 in 0.00 W/m2
00:05 67.5 °F 64.8 °F 29.82 in SW 3.5 mph 6.9 mph 91% 0.00 in 0.00 W/m2
00:09 67.5 °F 64.8 °F 29.82 in SSW 3.4 mph 5.8 mph 91% 0.00 in 0.00 W/m2
00:10 67.5 °F 64.8 °F 29.82 in SSW 2.3 mph 5.8 mph 91% 0.00 in 0.00 W/m2
00:14 67.5 °F 64.8 °F 29.82 in SW 4.6 mph 6.9 mph 91% 0.00 in 0.00 W/m2
00:15 67.5 °F 64.8 °F 29.82 in SW 1.1 mph 6.9 mph 91% 0.00 in 0.00 W/m2
00:19 67.5 °F 64.8 °F 29.82 in SSW 3.4 mph 6.9 mph 91% 0.00 in 0.00 W/m2
00:20 67.5 °F 64.8 °F 29.82 in SSW 4.6 mph 6.9 mph 91% 0.00 in 0.00 W/m2
00:24 67.5 °F 64.8 °F 29.82 in WSW 5.8 mph 8.1 mph 91% 0.00 in 0.00 W/m2
00:25 67.5 °F 64.8 °F 29.82 in SW 4.6 mph 8.1 mph 91% 0.00 in 0.00 W/m2
00:29 67.5 °F 64.8 °F 29.82 in SW 4.6 mph 9.2 mph 91% 0.00 in 0.00 W/m2
00:30 67.5 °F 64.8 °F 29.82 in SW 3.5 mph 9.2 mph 91% 0.00 in 0.00 W/m2
00:34 67.6 °F 64.9 °F 29.82 in SW 2.3 mph 6.9 mph 91% 0.00 in 0.00 W/m2
00:35 67.6 °F 64.9 °F 29.82 in SSW 1.1 mph 6.9 mph 91% 0.00 in 0.00 W/m2
00:39 67.6 °F 64.9 °F 29.82 in WSW 5.8 mph 5.8 mph 91% 0.00 in 0.00 W/m2
00:40 67.6 °F 64.9 °F 29.82 in SW 4.6 mph 5.8 mph 91% 0.00 in 0.00 W/m2
00:44 67.6 °F 64.9 °F 29.82 in SW 5.8 mph 8.1 mph 91% 0.00 in 0.00 W/m2
00:45 67.6 °F 64.9 °F 29.82 in WSW 4.6 mph 8.1 mph 91% 0.00 in 0.00 W/m2
00:49 67.6 °F 64.9 °F 29.82 in SW 3.4 mph 6.9 mph 91% 0.00 in 0.00 W/m2
00:50 67.6 °F 64.9 °F 29.82 in SW 2.3 mph 6.9 mph 91% 0.00 in 0.00 W/m2
00:54 67.5 °F 64.5 °F 29.82 in WSW 5.8 mph 5.8 mph 90% 0.00 in 0.00 W/m2
00:55 67.5 °F 64.5 °F 29.82 in SW 4.6 mph 6.9 mph 90% 0.00 in 0.00 W/m2
00:59 67.5 °F 64.5 °F 29.83 in WSW 3.4 mph 6.9 mph 90% 0.00 in 0.00 W/m2
01:00 67.5 °F 64.5 °F 29.83 in SW 4.6 mph 6.9 mph 90% 0.00 in 0.00 W/m2
01:04 67.5 °F 64.5 °F 29.83 in SW 9.2 mph 9.2 mph 90% 0.00 in 0.00 W/m2
01:05 67.5 °F 64.5 °F 29.83 in WSW 3.5 mph 9.2 mph 90% 0.00 in 0.00 W/m2
01:09 67.6 °F 64.6 °F 29.83 in WSW 4.6 mph 6.9 mph 90% 0.00 in 0.00 W/m2
01:10 67.5 °F 64.5 °F 29.82 in WSW 3.5 mph 6.9 mph 90% 0.00 in 0.00 W/m2
01:14 67.5 °F 64.5 °F 29.82 in WSW 4.6 mph 4.6 mph 90% 0.00 in 0.00 W/m2
01:15 67.5 °F 64.5 °F 29.83 in WSW 1.1 mph 4.6 mph 90% 0.00 in 0.00 W/m2
01:19 67.5 °F 64.5 °F 29.83 in WSW 1.1 mph 4.6 mph 90% 0.00 in 0.00 W/m2
01:20 67.5 °F 64.5 °F 29.83 in WSW 3.5 mph 4.6 mph 90% 0.00 in 0.00 W/m2
01:24 67.5 °F 64.5 °F 29.83 in WSW 2.3 mph 6.9 mph 90% 0.00 in 0.00 W/m2
01:25 67.5 °F 64.5 °F 29.83 in Calm   6.9 mph 90% 0.00 in 0.00 W/m2
01:29 67.4 °F 64.4 °F 29.82 in WSW 4.6 mph 5.8 mph 90% 0.00 in 0.00 W/m2
01:30 67.4 °F 64.4 °F 29.82 in WSW 4.6 mph 5.8 mph 90% 0.00 in 0.00 W/m2
01:34 67.4 °F 64.4 °F 29.82 in WSW 3.4 mph 4.6 mph 90% 0.00 in 0.00 W/m2
01:35 67.4 °F 64.4 °F 29.82 in WSW 2.3 mph 4.6 mph 90% 0.00 in 0.00 W/m2
01:39 67.4 °F 64.4 °F 29.82 in WSW 2.3 mph 3.4 mph 90% 0.00 in 0.00 W/m2
01:40 67.4 °F 64.4 °F 29.82 in WSW 2.3 mph 3.5 mph 90% 0.00 in 0.00 W/m2
01:44 67.4 °F 64.4 °F 29.82 in WSW 1.1 mph 4.6 mph 90% 0.00 in 0.00 W/m2
01:45 67.4 °F 64.4 °F 29.82 in WSW 2.3 mph 4.6 mph 90% 0.00 in 0.00 W/m2
01:49 67.4 °F 64.4 °F 29.82 in WSW 4.6 mph 5.8 mph 90% 0.00 in 0.00 W/m2
01:50 67.4 °F 64.4 °F 29.82 in WSW 3.5 mph 5.8 mph 90% 0.00 in 0.00 W/m2
01:54 67.4 °F 64.4 °F 29.82 in WSW 2.3 mph 4.6 mph 90% 0.00 in 0.00 W/m2
01:55 67.4 °F 64.4 °F 29.82 in WSW 1.1 mph 4.6 mph 90% 0.00 in 0.00 W/m2
01:59 67.4 °F 64.4 °F 29.82 in WSW 3.4 mph 3.4 mph 90% 0.00 in 0.00 W/m2
02:00 67.4 °F 64.4 °F 29.82 in WSW 1.1 mph 3.5 mph 90% 0.00 in 0.00 W/m2
02:04 67.4 °F 64.4 °F 29.82 in WSW 2.3 mph 4.6 mph 90% 0.00 in 0.00 W/m2
02:05 67.3 °F 64.3 °F 29.82 in WSW 1.1 mph 4.6 mph 90% 0.00 in 0.00 W/m2
02:09 67.3 °F 64.3 °F 29.82 in WSW 4.6 mph 4.6 mph 90% 0.00 in 0.00 W/m2
02:10 67.3 °F 64.3 °F 29.82 in WSW 2.3 mph 4.6 mph 90% 0.00 in 0.00 W/m2
02:14 67.3 °F 64.3 °F 29.82 in Calm   3.4 mph 90% 0.00 in 0.00 W/m2
02:15 67.3 °F 64.3 °F 29.82 in WSW 3.5 mph 3.5 mph 90% 0.00 in 0.00 W/m2
02:19 67.3 °F 64.3 °F 29.82 in WSW 3.4 mph 4.6 mph 90% 0.00 in 0.00 W/m2
02:20 67.3 °F 64.3 °F 29.82 in WSW 1.1 mph 4.6 mph 90% 0.00 in 0.00 W/m2
02:24 67.2 °F 64.2 °F 29.82 in WSW 1.1 mph 3.4 mph 90% 0.00 in 0.00 W/m2
02:25 67.2 °F 64.2 °F 29.82 in WSW 2.3 mph 3.5 mph 90% 0.00 in 0.00 W/m2
02:29 67.2 °F 64.2 °F 29.82 in WSW 2.3 mph 4.6 mph 90% 0.00 in 0.00 W/m2
02:30 67.2 °F 64.2 °F 29.82 in WSW 5.8 mph 5.8 mph 90% 0.00 in 0.00 W/m2
02:34 67.2 °F 64.2 °F 29.82 in WSW 1.1 mph 5.8 mph 90% 0.00 in 0.00 W/m2
02:35 67.2 °F 64.2 °F 29.82 in Calm   5.8 mph 90% 0.00 in 0.00 W/m2
02:39 67.1 °F 64.1 °F 29.82 in WSW 3.4 mph 5.8 mph 90% 0.00 in 0.00 W/m2
02:44 67.0 °F 64.0 °F 29.82 in WSW 2.3 mph 4.6 mph 90% 0.00 in 0.00 W/m2
02:49 66.9 °F 63.9 °F 29.83 in SW 6.9 mph 8.1 mph 90% 0.00 in 0.00 W/m2
02:54 66.7 °F 63.7 °F 29.83 in SW 1.1 mph 5.8 mph 90% 0.00 in 0.00 W/m2
02:59 66.5 °F 63.5 °F 29.83 in SW 3.4 mph 4.6 mph 90% 0.00 in 0.00 W/m2
03:04 66.3 °F 63.6 °F 29.83 in SW 5.8 mph 5.8 mph 91% 0.00 in 0.00 W/m2
03:09 66.2 °F 63.5 °F 29.82 in SW 3.4 mph 4.6 mph 91% 0.00 in 0.00 W/m2
03:14 66.1 °F 63.4 °F 29.82 in SW 3.4 mph 5.8 mph 91% 0.00 in 0.00 W/m2
03:19 66.0 °F 63.3 °F 29.82 in SW 3.4 mph 5.8 mph 91% 0.00 in 0.00 W/m2
03:24 65.9 °F 63.2 °F 29.82 in SW 3.4 mph 5.8 mph 91% 0.00 in 0.00 W/m2
03:29 65.9 °F 63.2 °F 29.82 in SW 2.3 mph 4.6 mph 91% 0.00 in 0.00 W/m2
03:34 65.9 °F 63.2 °F 29.82 in SW 2.3 mph 5.8 mph 91% 0.00 in 0.00 W/m2
03:39 65.8 °F 63.1 °F 29.83 in West 2.3 mph 4.6 mph 91% 0.00 in 0.00 W/m2
03:44 65.8 °F 63.1 °F 29.83 in West 1.1 mph 4.6 mph 91% 0.00 in 0.00 W/m2
03:49 65.7 °F 63.0 °F 29.83 in West 1.1 mph 4.6 mph 91% 0.00 in 0.00 W/m2
03:54 65.6 °F 62.9 °F 29.83 in Calm   3.4 mph 91% 0.00 in 0.00 W/m2
03:59 65.6 °F 62.9 °F 29.83 in Calm   3.4 mph 91% 0.00 in 0.00 W/m2
04:04 65.5 °F 62.8 °F 29.83 in West 1.1 mph 3.4 mph 91% 0.00 in 0.00 W/m2
04:09 65.4 °F 62.7 °F 29.83 in West 1.1 mph 4.6 mph 91% 0.00 in 0.00 W/m2
04:14 65.4 °F 62.7 °F 29.83 in West 3.4 mph 4.6 mph 91% 0.00 in 0.00 W/m2
04:19 65.3 °F 62.6 °F 29.84 in West 2.3 mph 4.6 mph 91% 0.00 in 0.00 W/m2
04:24 65.3 °F 62.6 °F 29.84 in West 2.3 mph 3.4 mph 91% 0.00 in 0.00 W/m2
04:29 65.2 °F 62.5 °F 29.84 in Calm   2.3 mph 91% 0.00 in 0.00 W/m2
04:34 65.1 °F 62.7 °F 29.83 in Calm     92% 0.00 in 0.00 W/m2
04:39 65.0 °F 62.6 °F 29.84 in Calm     92% 0.00 in 0.00 W/m2
04:44 64.9 °F 62.5 °F 29.84 in West 1.1 mph 5.8 mph 92% 0.00 in 0.00 W/m2
04:49 64.9 °F 62.5 °F 29.85 in WSW 2.3 mph 4.6 mph 92% 0.00 in 0.00 W/m2
04:54 64.8 °F 62.4 °F 29.84 in WSW 2.3 mph 3.4 mph 92% 0.00 in 0.00 W/m2
04:59 64.7 °F 62.3 °F 29.85 in WSW 1.1 mph 4.6 mph 92% 0.00 in 0.00 W/m2
05:04 64.7 °F 62.3 °F 29.85 in WSW 2.3 mph 4.6 mph 92% 0.00 in 0.00 W/m2
05:09 64.7 °F 62.3 °F 29.85 in WSW 3.4 mph 4.6 mph 92% 0.00 in 0.00 W/m2
05:14 64.7 °F 62.3 °F 29.85 in WSW 3.4 mph 6.9 mph 92% 0.00 in 0.00 W/m2
05:19 64.6 °F 62.2 °F 29.85 in WSW 2.3 mph 4.6 mph 92% 0.00 in 0.00 W/m2
05:24 64.5 °F 62.1 °F 29.85 in WSW 3.4 mph 6.9 mph 92% 0.00 in 0.00 W/m2
05:29 64.3 °F 61.9 °F 29.85 in West 2.3 mph 4.6 mph 92% 0.00 in 5.00 W/m2
05:34 64.1 °F 61.7 °F 29.85 in West 1.1 mph 4.6 mph 92% 0.00 in 9.00 W/m2
05:39 63.9 °F 61.5 °F 29.86 in West 1.1 mph 3.4 mph 92% 0.00 in 9.00 W/m2
05:44 63.9 °F 61.5 °F 29.86 in West 1.1 mph 3.4 mph 92% 0.00 in 12.00 W/m2
05:49 63.8 °F 61.4 °F 29.86 in West 1.1 mph 3.4 mph 92% 0.00 in 14.00 W/m2
05:54 63.8 °F 61.4 °F 29.86 in Calm   4.6 mph 92% 0.00 in 21.00 W/m2
Juneau County Weather
Compliments of Weather Underground - 2 mb